Location: Zagreb
(45.8000°N, 16.0000°E)
Time: 01:51:29
(UTC+02:00)

Transit 2A Rocket - Pass Details

Date: 29 January 2022
Orbit: 592 x 909 km, 66.7° (Epoch: 26 May)

Event Time Altitude Azimuth Distance (km) Brightness Sun altitude
Rises 03:33:52 0° 319° (NW) 3,408 - -39.5°
Reaches altitude 10° 03:36:40 10° 310° (NW) 2,420 - -39.1°
Maximum altitude 03:41:26 30° 251° (WSW) 1,362 - -38.3°
Drops below altitude 10° 03:45:50 10° 191° (S) 2,220 - -37.5°
Sets 03:48:19 0° 180° (S) 3,082 - -37.1°
